[[{"header":{"parameterUnit":"m.s-1","parameterCategory":1,"la1":30.2991,"la2":30.254,"lo1":-89.0895,"lo2":-89.0444,"dy":0.0017,"dx":0.0017,"nx":28,"ny":28,"refTime":"2025-05-20T09:00:00:Z","depth":0,"parameterNumber":2,"parameterNumberName":"U-component_of_WINDS"},"data":[0,0,0,0,0,0,0,0,0,0,0,0,0,0,0,0,0,0,0,0,0,0,0,0,0,0,0,0,0,0,0,0,0,0,0,0,0,0,0,0,0,0,0,0,0,0,0,0,0,0,0,0,0,0,0,0,0,0,0.9336,0.9336,0,0.931,0.9309,0.9309,0.9234,0.9232,0.923,0.9229,0.9205,0.9206,0.9207,0,0,0,0,0,0,0,0,0,0,0,0,0,0.9325,0.9326,0.9336,0.9336,0.9336,0.931,0.9309,0.9309,0.9234,0.9232,0.923,0.9228,0.9205,0.9206,0.9207,0,0,0,0,0,0,0,0,0,0,0,0,0,0.9317,0.9326,0.9336,0.9295,0.9291,0.931,0.9309,0.9309,0.9234,0.9232,0.9229,0.9227,0.9204,0.9206,0.9207,0.9265,0,0,0.9211,0.9212,0,0,0,0,0,0,0,0,0.9318,0.9318,0.9301,0.9298,0.9293,0.9272,0.9296,0.9294,0.9235,0.9256,0.9229,0.9226,0.923,0.9229,0.9229,0.9264,0.9263,0.9211,0.9212,0.9213,0.9213,0,0,0,0,0,0,0,0.9319,0.9319,0.9326,0.9301,0.9296,0.9279,0.9275,0.9296,0.9257,0.9254,0.9248,0.9246,0.9227,0.9228,0.9228,0.9262,0.9211,0.9213,0.9213,0.9214,0.9343,0.9345,0,0,0,0,0,0,0.9325,0.932,0.9327,0.9325,0.93,0.9281,0.9277,0.9282,0.9257,0.925,0.9248,0.9243,0.9227,0.9227,0.9227,0.9293,0.9213,0.9214,0.9215,0.934,0.9343,0.9346,0,0,0,0,0,0,0.9325,0.9326,0.9328,0.9321,0.932,0.9284,0.929,0.9283,0.9284,0.9252,0.9245,0.9256,0.9225,0.9225,0.9256,0.9291,0.9215,0.9216,0.9337,0.9341,0.9345,0.9426,0,0,0,0,0,0,0.9325,0.9326,0.9347,0.9322,0.932,0.9356,0.9292,0.9284,0.9286,0.9278,0.9258,0.9252,0.9223,0.9254,0.9257,0.9292,0.9217,0.9334,0.9339,0.9343,0.942,0.9432,0.9443,0,0,0,0,0,0.9324,0.9372,0.9349,0.935,0.9346,0.9359,0.9358,0.9322,0.9289,0.931,0.929,0.9253,0.9287,0.9258,0.9261,0.9296,0.9331,0.9337,0.9343,0.9415,0.943,0.9442,0,0,0,0,0,0,0.9405,0.9368,0.9342,0.9383,0.9374,0.9346,0.9372,0.9339,0.9341,0.9334,0.9291,0.9287,0.9324,0.9313,0.9281,0.9351,0.9303,0.931,0.9357,0.9371,0.9382,0.9384,0.9218,0,0,0,0,0,0.9427,0.9439,0.9407,0.9446,0.9443,0.9408,0.9413,0.9386,0.9376,0.9372,0.9354,0.9347,0.9355,0.9362,0.9368,0.9418,0.9412,0.9443,0.9455,0.9464,0.9471,0.9496,0.951,0.9365,0.9365,0.9365,0,0,0.9473,0.9455,0.9466,0.9462,0.9452,0.9467,0.9406,0.9424,0.9435,0.9375,0.9402,0.9389,0.9378,0.9418,0.9435,0.941,0.9509,0.9472,0.9479,0.9481,0.9504,0.9517,0.953,0.9369,0.9369,0.9368,0,0,0.9565,0.9552,0.9583,0.9574,0.956,0.9536,0.9544,0.952,0.9508,0.9535,0.949,0.9503,0.9519,0.9513,0.9512,0.96,0.9567,0.9604,0.9663,0.9689,0.97,0.971,0.9742,0.9754,0.961,0.961,0.9611,0,0.9625,0.9645,0.9604,0.9625,0.9624,0.9569,0.9601,0.9595,0.9584,0.9585,0.9557,0.9576,0.9564,0.9602,0.9624,0.9624,0.9632,0.9606,0.9701,0.9711,0.972,0.975,0.9762,0.9615,0.9615,0.9614,0.9614,0,0.9719,0.9733,0.976,0.975,0.9752,0.9779,0.9742,0.975,0.9723,0.9703,0.973,0.9714,0.9717,0.9723,0.9698,0.9758,0.9743,0.9709,0.966,0.9739,0.9767,0.9778,0.9622,0.962,0.9619,0.9617,0,0,0.9863,0.9828,0.9838,0.9833,0.9812,0.9823,0.9846,0.9847,0.9855,0.9849,0.9868,0.9883,0.9851,0.985,0.9822,0.9844,0.9916,0.9807,0.9807,0.9829,0.9982,1.0009,1.0023,0.9893,0.9895,0.9897,0.9984,0,0.995,0.9988,0.9951,0.9997,1.0009,0.9957,0.9977,0.9968,0.9949,0.9958,0.9937,0.9948,0.9905,0.9904,0.9923,0.9904,0.9947,0.9897,0.9912,0.9913,0.9918,1.0037,1.0065,1.0148,0.9994,0.9996,0.9997,0,1.0057,1.0055,1.0101,1.0077,1.0081,1.01,1.0098,1.0107,1.0095,1.0079,1.0078,1.0044,1.0066,1.0018,1.0049,1.0016,1.0019,1.0011,1.0013,1.0014,0.9961,1.0042,1.0173,1.0186,1.0014,1.0012,1.0011,0,1.0158,1.0166,1.0195,1.0191,1.0164,1.0179,1.0168,1.0153,1.0156,1.0154,1.0155,1.0157,1.0158,1.016,1.0128,1.0095,1.0163,1.0112,1.0152,1.0153,1.017,1.0169,1.0304,1.0171,1.0171,1.0171,1.017,0,1.026,1.0291,1.0239,1.0257,1.029,1.0248,1.0282,1.0266,1.0253,1.0268,1.0222,1.0237,1.0193,1.0204,1.0179,1.0208,1.0209,1.0198,1.0191,1.0203,1.0204,1.0206,1.02,1.0174,1.0173,1.0173,1.0172,0,1.0378,1.0345,1.0373,1.0344,1.0337,1.0363,1.0339,1.0355,1.0332,1.0351,1.0353,1.0319,1.0329,1.0296,1.0301,1.0284,1.0328,1.0311,1.0332,1.0327,1.037,1.0367,1.0511,1.0528,1.0384,1.0385,1.0386,0,1.0446,1.0468,1.0441,1.0447,1.0438,1.0448,1.045,1.041,1.0414,1.0401,1.0419,1.0424,1.0427,1.0445,1.0422,1.0425,1.0409,1.0459,1.0409,1.042,1.0411,1.041,1.0412,1.047,1.0472,1.0473,1.0474,0,1.057,1.0552,1.0556,1.0555,1.0558,1.0555,1.0549,1.0557,1.0513,1.052,1.0529,1.0531,1.0535,1.0542,1.054,1.053,1.0496,1.049,1.05,1.0512,1.0524,1.0519,1.0361,1.0487,1.0486,1.0485,1.0484,1.0484,1.0665,1.0682,1.0666,1.0672,1.0663,1.0658,1.0672,1.065,1.0657,1.0656,1.0632,1.0646,1.0633,1.0627,1.062,1.0631,1.0608,1.0622,1.0625,1.063,1.0637,1.0521,1.063,1.063,1.063,1.0629,1.0629,0,1.0787,1.0774,1.078,1.0772,1.0777,1.0742,1.0734,1.0741,1.0753,1.0743,1.0746,1.0757,1.0763,1.0739,1.0742,1.0755,1.0739,1.0757,1.0757,1.0755,1.0657,1.0649,1.077,1.077,1.077,1.077,1.077,1.077,1.0851,1.0879,1.0859,1.0881,1.0868,1.088,1.0878,1.0874,1.0866,1.0879,1.0883,1.0867,1.0852,1.0853,1.0858,1.085,1.0854,1.0878,1.0866,1.0775,1.0762,1.0749,1.0741,1.0879,1.0879,1.0962,1.0963,1.0964]},{"header":{"parameterUnit":"m.s-1","parameterCategory":1,"la1":30.2991,"la2":30.254,"lo1":-89.0895,"lo2":-89.0444,"dy":0.0017,"dx":0.0017,"nx":28,"ny":28,"refTime":"2025-05-20T09:00:00:Z","depth":0,"parameterNumber":3,"parameterNumberName":"V-component_of_WINDS"},"data":[0,0,0,0,0,0,0,0,0,0,0,0,0,0,0,0,0,0,0,0,0,0,0,0,0,0,0,0,0,0,0,0,0,0,0,0,0,0,0,0,0,0,0,0,0,0,0,0,0,0,0,0,0,0,0,0,0,0,6.669,6.669,0,6.6768,6.6769,6.677,6.6736,6.6734,6.6732,6.673,6.6804,6.6808,6.6811,0,0,0,0,0,0,0,0,0,0,0,0,0,6.6505,6.6508,6.669,6.6691,6.6692,6.6768,6.6769,6.677,6.6736,6.6734,6.6732,6.6729,6.6803,6.6807,6.6812,0,0,0,0,0,0,0,0,0,0,0,0,0,6.6584,6.6509,6.6689,6.6684,6.6684,6.6768,6.6769,6.677,6.6737,6.6734,6.6731,6.6728,6.6801,6.6807,6.6812,6.6903,0,0,6.6829,6.6832,0,0,0,0,0,0,0,0,6.6579,6.6591,6.6684,6.6685,6.6685,6.6739,6.6731,6.6815,6.6737,6.6717,6.673,6.6727,6.6784,6.6791,6.6812,6.6907,6.691,6.683,6.6833,6.6836,6.6837,0,0,0,0,0,0,0,6.6574,6.6587,6.672,6.6685,6.6686,6.6676,6.6684,6.6746,6.6765,6.6718,6.6716,6.6726,6.6784,6.6807,6.6813,6.6911,6.683,6.6835,6.6838,6.684,6.7085,6.7088,0,0,0,0,0,0,6.6569,6.6583,6.6718,6.6723,6.6624,6.6681,6.669,6.6725,6.6764,6.6768,6.6728,6.6724,6.6798,6.6807,6.6816,6.6925,6.6835,6.6841,6.6844,6.7081,6.7085,6.7089,0,0,0,0,0,0,6.6566,6.6582,6.6715,6.6652,6.6668,6.6688,6.6726,6.6728,6.675,6.6772,6.6775,6.6748,6.6796,6.6808,6.6882,6.6927,6.6843,6.6848,6.7078,6.7083,6.7087,6.7145,0,0,0,0,0,0,6.656,6.6581,6.6617,6.6653,6.6672,6.6782,6.6729,6.6731,6.6761,6.6756,6.6792,6.6795,6.6795,6.6874,6.6888,6.6933,6.6853,6.7074,6.708,6.7086,6.7139,6.7151,6.7161,0,0,0,0,0,6.6554,6.6628,6.6619,6.6635,6.6718,6.6785,6.6795,6.6796,6.6764,6.68,6.6814,6.6794,6.692,6.6882,6.6897,6.6945,6.7071,6.7078,6.7085,6.7134,6.7149,6.7161,0,0,0,0,0,0,6.6594,6.6633,6.6623,6.6712,6.6746,6.6779,6.6824,6.6811,6.6852,6.6846,6.6843,6.6852,6.6929,6.6944,6.6901,6.7035,6.6991,6.7001,6.7023,6.7037,6.7048,6.7042,6.6857,0,0,0,0,0,6.6614,6.6667,6.6697,6.6773,6.679,6.6804,6.6833,6.6831,6.6865,6.6878,6.6898,6.693,6.6977,6.7007,6.7052,6.7141,6.7148,6.7182,6.7193,6.7202,6.7211,6.7259,6.7274,6.7112,6.7112,6.7112,0,0,6.6654,6.6682,6.6715,6.6781,6.6807,6.686,6.6816,6.6874,6.6913,6.6886,6.6959,6.6974,6.7009,6.7092,6.7129,6.7107,6.7257,6.7211,6.7218,6.7222,6.7268,6.7283,6.7297,6.7117,6.7116,6.7115,0,0,6.6754,6.6781,6.6848,6.6875,6.6916,6.6925,6.6941,6.6976,6.6986,6.7059,6.7041,6.7086,6.7167,6.7193,6.7217,6.7329,6.7311,6.7343,6.7401,6.7448,6.7461,6.7472,6.7512,6.7526,6.7352,6.7352,6.7352,0,6.6799,6.6881,6.6883,6.6943,6.6972,6.6953,6.7019,6.7045,6.7097,6.7117,6.7092,6.7194,6.7216,6.7305,6.7332,6.7352,6.7369,6.7339,6.7459,6.7471,6.7481,6.7519,6.7534,6.7356,6.7355,6.7355,6.7354,0,6.6933,6.699,6.7038,6.7092,6.7126,6.7189,6.7199,6.7234,6.7229,6.724,6.7314,6.734,6.739,6.7411,6.7406,6.7499,6.7484,6.746,6.7414,6.75,6.7536,6.755,6.7361,6.7359,6.7358,6.7357,0,0,6.706,6.7116,6.7133,6.7158,6.7202,6.7245,6.7306,6.7357,6.7386,6.7423,6.7474,6.7543,6.7521,6.7548,6.7546,6.7587,6.7674,6.7558,6.7558,6.7578,6.7778,6.7797,6.7814,6.7663,6.7666,6.7668,6.7776,0,6.7164,6.7275,6.7279,6.7379,6.7431,6.7414,6.7467,6.7499,6.7511,6.7555,6.7568,6.7617,6.7585,6.7601,6.7641,6.7655,6.7714,6.7648,6.7709,6.7711,6.7701,6.7832,6.7852,6.7952,6.7789,6.7792,6.7793,0,6.73,6.7344,6.745,6.7488,6.751,6.7558,6.7605,6.7648,6.7683,6.7689,6.7721,6.7712,6.7773,6.7727,6.781,6.7765,6.779,6.78,6.7804,6.781,6.7757,6.7841,6.7984,6.7999,6.7815,6.7814,6.7812,0,6.7383,6.7468,6.7543,6.7564,6.7609,6.7644,6.7664,6.7696,6.7727,6.7767,6.7787,6.7833,6.7858,6.7894,6.7898,6.7863,6.7982,6.7935,6.7987,6.7987,6.8012,6.8011,6.8161,6.8029,6.8029,6.8028,6.8028,0,6.7499,6.7564,6.7581,6.7627,6.7699,6.7702,6.7773,6.779,6.782,6.7867,6.7854,6.7898,6.7901,6.7946,6.7949,6.8018,6.8029,6.8035,6.8035,6.8036,6.8035,6.8052,6.8045,6.8032,6.8032,6.8031,6.803,0,6.7603,6.7617,6.7697,6.7734,6.7745,6.7797,6.7828,6.7871,6.7882,6.7942,6.7956,6.7973,6.8026,6.8034,6.8094,6.8096,6.8179,6.8171,6.8168,6.8167,6.8218,6.8213,6.8384,6.8407,6.826,6.8262,6.8263,0,6.7676,6.7727,6.777,6.7802,6.7825,6.7876,6.7908,6.7913,6.7946,6.7991,6.8028,6.808,6.8122,6.8206,6.8223,6.8269,6.8262,6.8319,6.8269,6.8269,6.8263,6.826,6.8265,6.8329,6.833,6.8332,6.8333,0,6.7804,6.7809,6.7857,6.7908,6.7947,6.7986,6.8023,6.805,6.8059,6.8097,6.8152,6.8184,6.8248,6.8299,6.8345,6.8363,6.8349,6.8349,6.8363,6.8365,6.8361,6.8363,6.8194,6.8344,6.8343,6.8342,6.8342,6.8341,6.7895,6.794,6.7978,6.8031,6.806,6.8095,6.8138,6.8156,6.8202,6.8256,6.8255,6.8315,6.8349,6.841,6.8432,6.8477,6.8459,6.848,6.8485,6.849,6.8495,6.8354,6.8486,6.8485,6.8485,6.8485,6.8485,0,6.8023,6.8047,6.8097,6.815,6.8192,6.8178,6.8218,6.8254,6.8308,6.8341,6.8383,6.8446,6.8496,6.8517,6.8566,6.8598,6.8593,6.8611,6.8608,6.8613,6.8509,6.8492,6.8614,6.8614,6.8614,6.8614,6.8614,6.8614,6.8094,6.8169,6.8178,6.8266,6.8289,6.835,6.8374,6.8406,6.8433,6.8505,6.8547,6.8561,6.859,6.864,6.8685,6.869,6.8708,6.8728,6.873,6.8633,6.862,6.8607,6.8591,6.8732,6.8733,6.883,6.8831,6.8832]}]]